| time (UTC) | temp F | wind direction | speed knots | gust knots | rain 1hr in | rain 24hr in | rain mn in | humidity % | barometer mb |
| 20260510070008 | 57 | 263 | 0.0 | 0.0 | 0.00 | 0.03 | 0.03 | 74 | 1026.9 |
| 20260510064504 | 58 | 263 | 0.0 | 0.0 | 0.00 | 0.03 | 0.03 | 73 | 1026.9 |
| 20260510063026 | 58 | 263 | 0.0 | 0.0 | 0.00 | 0.03 | 0.03 | 72 | 1026.8 |
| 20260510061520 | 59 | 263 | 0.0 | 0.0 | 0.00 | 0.03 | 0.03 | 71 | 1026.8 |
| 20260510060034 | 59 | 263 | 0.0 | 0.0 | 0.00 | 0.03 | 0.03 | 71 | 1026.8 |
| 20260510054523 | 59 | 263 | 0.0 | 0.0 | 0.00 | 0.03 | 0.03 | 71 | 1026.7 |
| 20260510053011 | 59 | 263 | 0.0 | 0.0 | 0.00 | 0.03 | 0.03 | 68 | 1026.6 |
| 20260510051506 | 60 | 263 | 0.0 | 0.0 | 0.00 | 0.03 | 0.03 | 68 | 1026.6 |
| 20260510050026 | 60 | 263 | 0.0 | 0.0 | 0.00 | 0.03 | 0.03 | 68 | 1026.6 |
| 20260510044530 | 60 | 263 | 0.0 | 0.0 | 0.00 | 0.03 | 0.03 | 68 | 1026.7 |
| 20260510043026 | 60 | 263 | 0.0 | 0.0 | 0.00 | 0.03 | 0.03 | 66 | 1026.7 |
| 20260510041521 | 60 | 263 | 0.0 | 0.0 | 0.00 | 0.03 | 0.03 | 68 | 1026.6 |
| 20260510040015 | 61 | 263 | 0.0 | 0.0 | 0.00 | 0.03 | 0.03 | 69 | 1026.8 |
| 20260510034520 | 60 | 263 | 0.0 | 0.0 | 0.00 | 0.03 | 0.03 | 70 | 1026.8 |
| 20260510033014 | 60 | 263 | 0.0 | 0.0 | 0.00 | 0.03 | 0.03 | 71 | 1026.8 |
| 20260510031530 | 60 | 263 | 0.0 | 0.0 | 0.00 | 0.03 | 0.03 | 74 | 1026.9 |
| 20260510030027 | 60 | 263 | 0.0 | 0.0 | 0.00 | 0.03 | 0.03 | 75 | 1027.0 |
| 20260510024523 | 60 | 263 | 0.0 | 0.0 | 0.00 | 0.03 | 0.03 | 75 | 1027.1 |
| 20260510023022 | 59 | 263 | 0.0 | 0.0 | 0.00 | 0.03 | 0.03 | 75 | 1027.4 |
| 20260510021520 | 59 | 263 | 0.0 | 0.0 | 0.00 | 0.03 | 0.03 | 76 | 1027.5 |
| 20260510020018 | 59 | 281 | 0.0 | 0.0 | 0.00 | 0.03 | 0.03 | 79 | 1027.7 |
| 20260510014529 | 59 | 281 | 0.0 | 0.0 | 0.00 | 0.03 | 0.03 | 84 | 1027.9 |
| 20260510013028 | 59 | 281 | 0.0 | 0.0 | 0.00 | 0.03 | 0.03 | 85 | 1028.0 |
| 20260510011527 | 58 | 281 | 0.0 | 0.0 | 0.00 | 0.03 | 0.03 | 87 | 1028.1 |
| 20260510010026 | 58 | 281 | 0.0 | 0.0 | 0.00 | 0.03 | 0.03 | 89 | 1028.2 |
| 20260510004522 | 57 | 281 | 0.0 | 0.0 | 0.00 | 0.03 | 0.03 | 91 | 1028.2 |
| 20260510003033 | 57 | 281 | 0.0 | 0.0 | 0.00 | 0.03 | 0.03 | 92 | 1028.1 |
| 20260510001521 | 57 | 281 | 0.0 | 0.0 | 0.00 | 0.03 | 0.03 | 93 | 1028.2 |
| 20260510000030 | 56 | 281 | 0.0 | 0.0 | 0.00 | 0.03 | 0.03 | 93 | 1028.2 |
| 20260509234537 | 56 | 281 | 0.0 | 0.0 | 0.00 | 0.03 | 0.03 | 94 | 1028.2 |
| 20260509233030 | 56 | 281 | 0.0 | 0.0 | 0.00 | 0.03 | 0.03 | 94 | 1028.1 |
| 20260509231526 | 56 | 281 | 0.0 | 0.0 | 0.00 | 0.03 | 0.03 | 94 | 1028.1 |
| 20260509230022 | 56 | 281 | 0.0 | 0.0 | 0.00 | 0.03 | 0.03 | 94 | 1027.9 |
| 20260509224519 | 55 | 281 | 0.0 | 0.0 | 0.00 | 0.03 | 0.03 | 94 | 1027.9 |
| 20260509223018 | 55 | 281 | 0.0 | 0.0 | 0.00 | 0.03 | 0.03 | 94 | 1028.0 |
| 20260509221513 | 55 | 281 | 0.0 | 0.0 | 0.00 | 0.03 | 0.03 | 94 | 1027.9 |
| 20260509220023 | 55 | 281 | 0.0 | 0.0 | 0.00 | 0.03 | 0.03 | 94 | 1027.6 |
| 20260509214507 | 55 | 281 | 0.0 | 0.0 | 0.00 | 0.03 | 0.03 | 94 | 1027.3 |
| 20260509213004 | 55 | 281 | 0.0 | 0.0 | 0.00 | 0.03 | 0.03 | 94 | 1027.0 |
| 20260509211526 | 55 | 281 | 0.0 | 0.0 | 0.00 | 0.03 | 0.03 | 93 | 1026.9 |
| 20260509210022 | 55 | 281 | 0.0 | 0.0 | 0.00 | 0.03 | 0.03 | 94 | 1026.8 |
| 20260509204522 | 55 | 281 | 0.0 | 0.0 | 0.00 | 0.03 | 0.03 | 93 | 1026.6 |